Weather History for Laramie, WY

Change the Weather History Date:

Friday, February 22, 2013

  Actual Average Record
Temperature  
Mean Temperature 11 °F 25 °F  
Max Temperature 25 °F 37 °F 61 °F (1958)
Min Temperature -3 °F 13 °F -15 °F (2010)
Degree Days  
Heating Degree Days 54 40  
Month to date heating degree days 935 925  
Since 1 July heating degree days 5596 5940  
Cooling Degree Days 0 0  
Month to date cooling degree days 0 0  
Year to date cooling degree days 0 0  
Moisture  
Dew Point 3 °F    
Average Humidity 73    
Maximum Humidity 95    
Minimum Humidity 50    
Precipitation  
Precipitation 0.00 in 0.02 in 0.17 in (1964)
Month to date precipitation 0.07 0.26  
Year to date precipitation 0.22 0.53  
Sea Level Pressure  
Sea Level Pressure 29.95 in    
Wind  
Wind Speed 10 mph (WSW)    
Max Wind Speed 22 mph    
Max Gust Speed 25 mph    
Visibility 8 miles    
Events Fog    
T = Trace of Precipitation, MM = Missing Value Source: NWS Daily Summary

Daily Weather History Graph

Daily Weather History Graph

Search for Another Location

Airport:

Trip Planner

Search our weather history database for the weather conditions in past years. The results will help you decide how hot, cold, wet, or windy it might be!

Date:

Astronomy

Feb. 22, 2013 Rise Set
Actual Time 6:47 AM MST 5:45 PM MST
Civil Twilight 6:19 AM MST 6:13 PM MST
Nautical Twilight 5:47 AM MST 6:45 PM MST
Astronomical Twilight 5:15 AM MST 7:17 PM MST
Moon 2:58 PM MST (2/22) 4:35 AM MST (2/22)
Length of Visible Light 11h 54m
Length of Day
10h 58m
Waxing Gibbous, 90% of the Moon is Illuminated
Feb 22
Waxing Gibbous
Feb 25
Full
Mar 4
Last Quarter
Mar 11
New
Mar 19
First Quarter

Hourly Weather History & Observations

Time (MST) Temp. Windchill Dew Point Humidity Pressure Visibility Wind Dir Wind Speed Gust Speed Precip Events Conditions
12:53 AM 1.0 °F -6.7 °F -0.9 °F 91% 29.98 in 0.5 mi South 3.5 mph - N/A Fog Light Freezing Fog
1:30 AM -0.4 °F - -4.0 °F 85% 29.77 in 0.8 mi Calm Calm - N/A   Mist
1:38 AM -0.4 °F - -2.2 °F 92% 29.77 in 0.5 mi Calm Calm - N/A Fog Light Freezing Fog
1:53 AM -0.9 °F -8.9 °F -4.0 °F 87% 29.98 in 0.5 mi SW 3.5 mph - N/A Fog Light Freezing Fog
2:03 AM -2.2 °F -12.5 °F -5.8 °F 85% 29.76 in 1.0 mi WSW 4.6 mph - N/A   Mist
2:06 AM -2.2 °F -14.2 °F -5.8 °F 85% 29.76 in 2.0 mi WSW 5.8 mph - N/A   Partly Cloudy
2:14 AM -2.2 °F -14.2 °F -5.8 °F 85% 29.76 in 10.0 mi WSW 5.8 mph - N/A   Clear
2:53 AM -2.0 °F -15.4 °F -6.0 °F 83% 29.99 in 10.0 mi East 6.9 mph - N/A   Partly Cloudy
3:53 AM 6.1 °F -8.7 °F 1.9 °F 83% 29.94 in 10.0 mi SE 10.4 mph - N/A   Clear
4:53 AM 6.1 °F -4.3 °F 1.9 °F 83% 29.96 in 10.0 mi South 5.8 mph - N/A   Clear
5:53 AM 1.0 °F - -2.0 °F 87% 30.01 in 10.0 mi Calm Calm - N/A   Clear
6:53 AM 3.0 °F -9.3 °F -0.0 °F 87% 30.01 in 10.0 mi South 6.9 mph - N/A   Scattered Clouds
7:53 AM 10.9 °F 0.2 °F 6.1 °F 81% 30.00 in 10.0 mi WNW 6.9 mph - N/A   Overcast
8:53 AM 15.1 °F - 10.0 °F 80% 30.01 in 10.0 mi Calm Calm - N/A   Mostly Cloudy
9:53 AM 17.1 °F 8.7 °F 9.0 °F 71% 30.01 in 10.0 mi ENE 5.8 mph - N/A   Clear
10:53 AM 19.0 °F 10.0 °F 9.0 °F 65% 30.06 in - NNE 6.9 mph - N/A   Partly Cloudy
11:53 AM 21.0 °F 8.6 °F 10.0 °F 63% 30.05 in 10.0 mi NW 12.7 mph - 0.00 in   Clear
12:53 PM 21.0 °F 7.6 °F 10.9 °F 65% 30.03 in 10.0 mi NNW 15.0 mph - 0.00 in   Clear
1:53 PM 24.1 °F 9.8 °F 9.0 °F 53% 30.00 in 10.0 mi West 19.6 mph - N/A   Scattered Clouds
2:53 PM 24.1 °F 11.0 °F 8.1 °F 51% 30.00 in 10.0 mi West 16.1 mph - N/A   Partly Cloudy
3:53 PM 23.0 °F 10.6 °F 7.0 °F 50% 29.96 in 10.0 mi West 13.8 mph - N/A   Scattered Clouds
4:53 PM 21.0 °F 8.6 °F 7.0 °F 55% 29.97 in 10.0 mi West 12.7 mph - N/A   Clear
5:53 PM 15.1 °F 1.8 °F 5.0 °F 64% 30.05 in 10.0 mi West 11.5 mph - N/A   Clear
6:53 PM 10.9 °F -1.8 °F 3.0 °F 70% 30.06 in 10.0 mi WSW 9.2 mph - N/A   Clear
7:53 PM 12.9 °F -2.8 °F 3.9 °F 67% 29.99 in 10.0 mi SSW 15.0 mph - N/A   Clear
8:53 PM 15.1 °F -1.1 °F 3.9 °F 61% 29.96 in 10.0 mi WSW 17.3 mph - N/A   Clear
9:53 PM 14.0 °F -0.2 °F 3.0 °F 62% 29.94 in 10.0 mi SW 12.7 mph - N/A   Clear
10:53 PM 15.1 °F -1.6 °F 5.0 °F 64% 29.91 in 10.0 mi SW 18.4 mph - N/A   Clear
11:53 PM 14.0 °F -1.4 °F 5.0 °F 67% 29.88 in 10.0 mi WSW 15.0 mph - N/A   Clear